Location: St Paul
(33.9360°N, 83.4200°W)
Time: 00:03:21
(UTC-04:00)

SEDSat Delta rocket - Pass Details

Date: 06 October 2017
Orbit: 533 x 1002 km, 31.4° (Epoch: 17 October)

Event Time Altitude Azimuth Distance (km) Brightness Sun altitude
Rises 19:54:35 0° 253° (WSW) 2,921 8.2 -9.9°
Reaches altitude 10° 19:56:49 10° 249° (WSW) 2,078 7.0 -10.4°
Maximum altitude 20:01:37 60° 170° (S) 833 3.6 -11.4°
Enters shadow 20:05:54 17° 94° (E) 1,933 4.9 -12.2°
